User: anonymous   Login
Location: Campillo
(40.8621°N, 4.2488°W)
Time: 02:08:22
(UTC+00:00)
Language:

ERS-2 - Orbit

View from above orbital plane
View from above orbital plane
View from above satellite
View from above satellite

Ground track
Ground track

The orbit data is extracted from the following two-line orbital elements,

1 23560U 95021A   21207.59606744  .00001376  00000-0  60431-4 0  9991
2 23560  98.5446  63.1685 0002399 218.5436 141.5627 15.24066002403655
Epoch (UTC): 26 July 2021 14:18:20
Eccentricity: 0.0002399
inclination: 98.5446°
perigee height: 492 km
apogee height: 495 km
right ascension of ascending node: 63.1685°
argument of perigee: 218.5436°
revolutions per day: 15.24066002
mean anomaly at epoch: 141.5627°
orbit number at epoch: 40365

The dashed part of the orbit path shows where the satellite is in the earth's shadow,  

DLR